{"data":{"norad_id":45856,"intl_designator":"2020-042A","name":"GAOFEN DUOMO (GFDM)","alt_names":[],"object_type":"PAYLOAD","status":"ACTIVE","operator":null,"country":"PRC","launch_date":"2020-07-03","launch_site_code":"TAISC","launch_vehicle":null,"mission":null,"orbit_class":"UNKNOWN","rcs_meters":null,"size_class":null,"mass_kg":null,"dimensions":null,"purposes":[],"wikipedia_slug":null,"has_3d_model":false,"image_url":null,"decayed_at":null,"tle_current":{"epoch":"2026-09-20T04:43:29.973216Z","epoch_age_seconds":96490,"freshness":"FRESH","line1":"1 45856U 20042A   26263.19687469  .00000603  00000+0  92724-4 0  9991","line2":"2 45856  97.7647 319.5718 0012118 123.2797 236.9576 14.76867973335038","mean_motion":14.76867973,"eccentricity":0.0012118,"inclination_deg":97.7647,"raan_deg":319.5718,"arg_perigee_deg":123.2797,"mean_anomaly_deg":236.9576,"bstar":9.2724e-5,"rev_number":33503,"period_min":97.50363785565,"perigee_km":630.72424674615,"apogee_km":647.73153229239,"semimajor_km":7017.3648895193,"source":"CELESTRAK","updated_at":"2026-09-20T09:00:14.715288Z"}}}